OpenBCM V1.13 (Linux)

Packet Radio Mailbox

DB0FHN

[JN59NK Nuernberg]

 Login: GUEST





  
LU1HVK > KEP      08.10.19 08:34l 244 Lines 12026 Bytes #999 (0) @ WW
BID : 32946_LU1HVK
Read: DJ6UX DF7EAV GUEST
Subj: TLE 08 10
Path: DB0FHN<DB0BLO<DB0ERF<DB0RES<DB0EEO<DB0GOS<ON0AR<VK6HGR<LU4ECL<VE2PKT<
      N3HYM<LU3DVN<LU9HGS<LU1HVK
Sent: 191008/0522Z 32946@LU1HVK.2594.CBA.ARG.SA LinBPQ6.0.19

                         _    _   _ _ _   ___     ___  __
                        | |  | | | / | | | \ \   / / |/ /
                        | |  | | | | | |_| |\ \ / /| ' /
                        | |__| |_| | |  _  | \ V / | . \
                        |_____\___/|_|_| |_|  \_/  |_|\_\

     BBS/NODO - CORDOBA (LEONES-FF87UH) - LU1HVK-4 NODO - LU1HVK-3 APRS

+----------------------------------------------------------------------------+
OSCAR 7
1  7530U 74089B   19280.86789216 -.00000023 +00000-0 +13716-3 0  9997
2  7530 101.7588 247.4426 0012319 131.0931 283.0157 12.53640166054212
OSCAR 11 (UoSAT 2)
1 14781U 84021B   19280.88715968 +.00000061 +00000-0 +13612-4 0  9992
2 14781 097.6059 300.3129 0007473 322.9270 037.1427 14.83110533894243
OSCAR 19 (LUSAT)
1 20442U 90005G   19280.83362898 +.00000012 +00000-0 +20707-4 0  9996
2 20442 098.6572 222.6896 0011699 176.5105 183.6162 14.32934380552238
EYESAT A
1 22825U 93061C   19280.88659854 +.00000014 +00000-0 +23420-4 0  9991
2 22825 098.9127 272.1079 0009111 040.7514 319.4347 14.30067958357579
ITAMSAT
1 22826U 93061D   19280.93229697 +.00000014 +00000-0 +23119-4 0  9991
2 22826 098.9067 272.1322 0009459 029.7780 330.3938 14.30402056357807
RADIO ROSTO
1 23439U 94085A   19280.82258333 -.00000038 +00000-0 +11345-3 0  9990
2 23439 064.8148 296.4124 0145264 091.5790 270.1778 11.27568193020428
JAS 2
1 24278U 96046B   19280.90945072 -.00000026 +00000-0 +11950-4 0  9993
2 24278 098.5545 059.3119 0349516 311.8039 045.3726 13.53093585142592
TECHSAT 1B
1 25397U 98043D   19280.87402810 -.00000016 +00000-0 +12453-4 0  9997
2 25397 098.6963 219.7069 0002380 080.2588 279.8859 14.23671751103477
ISS (ZARYA)
1 25544U 98067A   19281.03640917  .00000832  00000-0  22494-4 0  9999
2 25544  51.6437 161.6616 0007504 125.8436  11.7631 15.50175799192763
PCSAT
1 26931U 01043C   19280.87377427 -.00000022 +00000-0 +23294-4 0  9993
2 26931 067.0506 076.7731 0007437 269.1378 090.8872 14.30554370940802
SAUDISAT 1C
1 27607U 02058C   19280.89982981 +.00000007 +00000-0 +21845-4 0  9992
2 27607 064.5549 069.5874 0075559 234.9013 124.4990 14.75576663903314
CUTE-1
1 27844U 03031E   19280.81212050 +.00000055 +00000-0 +44289-4 0  9992
2 27844 098.6857 287.3693 0010889 071.8383 288.3980 14.22197940844041
CUBESAT XI 4
1 27848U 03031J   19280.48409473 +.00000037 +00000-0 +36802-4 0  9998
2 27848 098.6932 287.5690 0010861 083.1812 277.0601 14.21790537843854
MOZHAYETS 4
1 27939U 03042A   19280.90024577 +.00000035 +00000-0 +14956-4 0  9990
2 27939 098.0569 054.6504 0014127 077.7178 282.5598 14.66807675856845
CUBESAT XI 5
1 28895U 05043F   19280.86977323 +.00000137 +00000-0 +35225-4 0  9991
2 28895 097.9753 059.8935 0016783 005.5077 354.6307 14.63697011743518
CUTE-1.7+APD II
1 32785U 08021C   19280.75107792 +.00000180 +00000-0 +25046-4 0  9994
2 32785 097.5559 275.2610 0011565 253.0286 106.9664 14.88353158620134
DELFI C3
1 32789U 08021G   19280.89916750 +.00000924 +00000-0 +65376-4 0  9991
2 32789 097.4534 327.1540 0013761 104.0625 256.2134 15.07153125623612
SEEDS
1 32791U 08021J   19280.71635790 +.00000169 +00000-0 +22459-4 0  9993
2 32791 097.5317 281.3024 0012201 223.3502 136.6758 14.90881264620578
YUBELEINY
1 32953U 08025A   19280.95372842 +.00000020 +00000-0 +75656-4 0  9992
2 32953 082.4987 075.5624 0018801 246.0740 113.8374 12.43091424516135
PRISM (HITOMI)
1 33493U 09002B   19280.77499954 -.00000106  00000-0 -36357-5 0  9995
2 33493  98.1216 205.9430 0014870 170.7051 189.4448 14.96752666581762
KKS-1 (KISEKI)
1 33499U 09002H   19280.89361163 +.00000089 +00000-0 +21102-4 0  9993
2 33499 098.3420 123.1133 0008478 205.8270 154.2516 14.75467153575195
SWISSCUBE
1 35932U 09051B   19280.90283444 +.00000129 +00000-0 +40235-4 0  9991
2 35932 098.5983 090.2059 0007632 176.4644 183.6608 14.56315457532925
BEESAT
1 35933U 09051C   19280.89914054 +.00000099 +00000-0 +33284-4 0  9990
2 35933 098.6002 092.0068 0005608 186.8912 173.2208 14.56400645532995
ITUPSAT 1
1 35935U 09051E   19280.74610867  .00000098  00000-0  33782-4 0  9993
2 35935  98.6111  92.0785 0007915 188.2211 171.8857 14.55556411532799
XIWANG-1 (HOPE-1)
1 36122U 09072B   19280.77853190 -.00000053  00000-0 -29762-4 0  9992
2 36122 100.0784 277.9564 0008011  89.0311 271.1721 13.16351418471497
TISAT 1
1 36799U 10035E   19280.87372166 +.00000261 +00000-0 +32394-4 0  9997
2 36799 098.1699 076.8149 0013566 082.6400 277.6358 14.91170392501139
JUGNU
1 37839U 11058B   19280.64624545 +.00000331 +00000-0 +34396-4 0  9997
2 37839 019.9626 021.9297 0019023 109.7757 019.7766 14.12660712412852
SRMSAT
1 37841U 11058D   19280.78423797 +.00000296 +00000-0 +17451-4 0  9994
2 37841 019.9725 080.1642 0011892 337.3168 153.6574 14.10640550412308
M-CUBED/EXP-1 PRIME
1 37855U 11061F   19280.85151023 +.00000887 +00000-0 +51946-4 0  9994
2 37855 101.7150 233.5147 0173027 107.1711 254.8525 15.05621525433034
HORYU 2
1 38340U 12025D   19280.90876588 +.00000139 +00000-0 +28245-4 0  9997
2 38340 098.3188 322.7770 0012600 126.6811 233.5557 14.75756198387156
STRAND 1
1 39090U 13009E   19280.64410704 +.00000018 +00000-0 +21517-4 0  9999
2 39090 098.4778 124.6917 0008544 325.8437 034.2198 14.35099494346287
SOMP
1 39134U 13015E   19280.73099144  .00001201  00000-0  63497-4 0  9994
2 39134  64.8648  20.6373 0036565 284.8447  74.8631 15.20373052357474
BEESAT 3
1 39135U 13015F   19280.78526673 +.00000856 +00000-0 +51697-4 0  9996
2 39135 064.8694 040.3357 0035735 293.7004 066.0374 15.17636593356714
BEESAT 2
1 39136U 13015G   19280.79868796 +.00000766 +00000-0 +48251-4 0  9995
2 39136 064.8700 044.4343 0027527 299.1279 060.7092 15.17055028356634
CUBEBUG 1
1 39153U 13018D   19280.80048232  .00000179  00000-0  30241-4 0  9992
2 39153  97.9808  18.3171 0016666 194.0017 166.0735 14.80603437348258
ZACUBE
1 39417U 13066B   19280.90446881 +.00000202 +00000-0 +31696-4 0  9993
2 39417 097.5629 288.1567 0059674 030.6866 329.7815 14.81156955317507
TRITON 1
1 39427U 13066M   19280.90939477 +.00000178 +00000-0 +36170-4 0  9996
2 39427 097.6900 251.4928 0113960 168.6849 191.6960 14.67886384314466
GOMX 1
1 39430U 13066Q   19280.84058775 +.00000160 +00000-0 +38446-4 0  9995
2 39430 097.7577 230.1350 0149908 263.9254 094.4854 14.59293118312811
HUMSAT D
1 39433U 13066T   19280.92618542 +.00000463 +00000-0 +50411-4 0  9993
2 39433 097.5427 323.8228 0029264 290.3929 069.4148 14.92264052318484
CUBEBUG 2
1 39440U 13066AA  19280.93991825 +.00000211 +00000-0 +36122-4 0  9994
2 39440 097.6095 272.8473 0081720 083.6849 277.3661 14.75893919315183
FUNCUBE 1
1 39444U 13066AE  19280.91087013 +.00000247 +00000-0 +36637-4 0  9991
2 39444 097.5602 290.2131 0058664 024.1501 336.2443 14.81984495315811
UWE-3
1 39446U 13066AG  19280.88884159 +.00000219 +00000-0 +35534-4 0  9999
2 39446 097.5855 279.9319 0071315 057.8643 302.9463 14.78429305315107
SPROUT
1 39770U 14029E   19280.90149400 +.00000519 +00000-0 +63360-4 0  9996
2 39770 097.8880 023.5045 0010031 080.9392 279.2948 14.87446794291369
UNISAT 6
1 40012U 14033C   19280.93789666 +.00000163 +00000-0 +31487-4 0  9999
2 40012 097.7410 142.6697 0059717 098.6091 262.1890 14.74014276285070
DUCHIFAT 1
1 40021U 14033M   19280.83845538 +.00000289 +00000-0 +35304-4 0  9990
2 40021 097.9241 205.8012 0014105 047.5979 312.6429 14.90697462288105
QB50P1
1 40025U 14033R   19280.71792626  .00000270  00000-0  34631-4 0  9992
2 40025  97.9035 200.2103 0013724  57.4397 302.8143 14.88993168287843
CHUBUSAT 1
1 40300U 14070C   19280.76462102  .00000482  00000-0  23899-4 0  9996
2 40300  97.3172 352.0929 0021017  28.1078  86.6435 15.22193195272916
NUDT-PHONESAT
1 40900U 15049B   19280.82237444  .00001825  00000-0  80229-4 0  9997
2 40900  97.4377 289.0871 0013606 148.7259 336.0580 15.23107439224579
ZDPS 2A
1 40901U 15049C   19280.95650639 +.00000637 +00000-0 +34759-4 0  9994
2 40901 097.4627 285.1896 0013347 169.3801 249.5511 15.17859423224118
ZDPS 2B
1 40902U 15049D   19280.92336897 +.00001145 +00000-0 +60003-4 0  9995
2 40902 097.4576 282.5632 0013632 166.7776 227.2985 15.17722904224087
XW-2A
1 40903U 15049E   19280.94743235 +.00001647 +00000-0 +40315-4 0  9997
2 40903 097.3267 324.2879 0015032 100.6795 022.4876 15.42158703227394
KAITUO 1A
1 40904U 15049F   19280.92885159 +.00000692 +00000-0 +40043-4 0  9995
2 40904 097.4713 281.0578 0014444 176.3629 271.1425 15.15453950223841
OBJECT G
1 40905U 15049G   19280.94578927 +.00000069 +00000-0 +73296-5 0  9995
2 40905 097.4758 278.5100 0015524 172.4544 218.0115 15.14354233223711
XW-2C
1 40906U 15049H   19280.90662941 +.00000305 +00000-0 +19443-4 0  9998
2 40906 097.4717 281.1683 0014879 167.9724 279.5488 15.15770484223844
XW-2D
1 40907U 15049J   19280.81091641  .00000728  00000-0  41303-4 0  9991
2 40907  97.4695 280.7549 0014467 165.3208 318.6849 15.15969171223847
LILACSAT 2
1 40908U 15049K   19280.96056890 +.00000031 +00000-0 +53185-5 0  9994
2 40908 097.4833 279.6070 0015971 172.6931 217.6187 15.13858686223640
XW-2F
1 40910U 15049M   19280.79853098  .00000941  00000-0  50273-4 0  9997
2 40910  97.4663 282.9104 0015253 157.7065 326.9137 15.17451629223867
XW-2B
1 40911U 15049N   19280.78302288  .00000429  00000-0  25858-4 0  9999
2 40911  97.4720 281.3959 0014142 165.8414 319.7146 15.15895552223738
KAITUO 1B
1 40912U 15049P   19280.79110247  .00000894  00000-0  44857-4 0  9999
2 40912  97.4510 286.7198 0015746 139.8377 340.9770 15.19780998224180
TIANWANG 1C (TW-1C)
1 40926U 15051B   19280.86084894  .00012425  00000-0  16834-3 0  9999
2 40926  97.1240 326.9601 0006416 331.2622 114.5216 15.57797786227451
TIANWANG 1B (TW-1B)
1 40927U 15051C   19280.94286172 +.00011539 +00000-0 +16670-3 0  9995
2 40927 097.1271 326.1843 0006871 344.5399 138.3746 15.56076212227308
